Location: Unspecified
(0.0000°N, 0.0000°E)
Time: 01:06:25
(UTC-04:00)

Envisat - Pass Details

Date: 19 September 2021
Orbit: 764 x 766 km, 98.2° (Epoch: 26 October)

Event Time Altitude Azimuth Distance (km) Brightness Sun altitude
Rises 00:32:33 0° 18° (NNE) 3,213 6.5 -20.3°
Reaches altitude 10° 00:34:52 10° 22° (NNE) 2,290 5.7 -19.7°
Maximum altitude 00:39:51 62° 102° (ESE) 854 3.5 -18.5°
Drops below altitude 10° 00:44:51 10° 182° (S) 2,299 5.4 -17.2°
Sets 00:47:11 0° 185° (S) 3,227 6.2 -16.7°
